TimeMST,TemperatureF,Dew PointF,Humidity,Sea Level PressureIn,VisibilityMPH,Wind Direction,Wind SpeedMPH,Gust SpeedMPH,PrecipitationIn,Events,Conditions,WindDirDegrees,DateUTC
12:53 AM,30.0,28.9,96,29.96,3.0,WSW,11.5,-,0.00,,Overcast,240,2012-12-07 07:53:00
1:53 AM,28.9,28.0,96,29.96,10.0,WSW,12.7,-,N/A,,Scattered Clouds,240,2012-12-07 08:53:00
2:53 AM,28.9,28.0,96,29.96,10.0,WSW,11.5,-,N/A,,Partly Cloudy,240,2012-12-07 09:53:00
3:28 AM,28.4,26.6,93,29.88,10.0,WSW,10.4,-,N/A,Fog,Partly Cloudy,240,2012-12-07 10:28:00
3:53 AM,28.0,27.0,96,29.95,10.0,SW,10.4,-,N/A,Fog,Scattered Clouds,230,2012-12-07 10:53:00
4:15 AM,26.6,26.6,100,29.86,1.0,SW,10.4,-,N/A,,Overcast,220,2012-12-07 11:15:00
4:20 AM,26.6,26.6,100,29.86,0.5,SW,9.2,-,N/A,Fog,Light Freezing Fog,220,2012-12-07 11:20:00
4:41 AM,26.6,26.6,100,29.85,1.5,SW,9.2,-,N/A,,Mostly Cloudy,230,2012-12-07 11:41:00
4:53 AM,27.0,26.1,96,29.94,3.0,WSW,10.4,-,N/A,,Mostly Cloudy,250,2012-12-07 11:53:00
5:02 AM,28.4,26.6,93,29.85,10.0,WSW,11.5,-,N/A,Fog,Scattered Clouds,240,2012-12-07 12:02:00
5:53 AM,27.0,26.1,96,29.94,10.0,SW,11.5,-,N/A,Fog,Scattered Clouds,230,2012-12-07 12:53:00
6:53 AM,27.0,25.0,92,29.96,10.0,WSW,18.4,-,N/A,,Mostly Cloudy,240,2012-12-07 13:53:00
7:53 AM,27.0,24.1,89,29.96,10.0,WSW,12.7,-,N/A,,Mostly Cloudy,250,2012-12-07 14:53:00
8:53 AM,27.0,24.1,89,29.98,10.0,WSW,17.3,-,N/A,,Mostly Cloudy,240,2012-12-07 15:53:00
9:53 AM,28.0,25.0,88,29.97,10.0,SW,13.8,-,N/A,,Mostly Cloudy,230,2012-12-07 16:53:00
10:53 AM,30.0,25.0,82,29.96,10.0,WSW,16.1,-,N/A,,Scattered Clouds,240,2012-12-07 17:53:00
11:53 AM,32.0,25.0,75,29.95,10.0,WSW,16.1,-,N/A,,Scattered Clouds,240,2012-12-07 18:53:00
12:53 PM,35.1,26.1,70,29.93,10.0,SW,12.7,-,N/A,,Partly Cloudy,230,2012-12-07 19:53:00
1:53 PM,37.0,23.0,57,29.90,10.0,West,19.6,28.8,N/A,,Partly Cloudy,270,2012-12-07 20:53:00
2:53 PM,37.0,19.9,50,29.90,10.0,West,20.7,26.5,N/A,,Partly Cloudy,280,2012-12-07 21:53:00
3:53 PM,35.1,19.9,54,29.91,10.0,WSW,12.7,-,N/A,,Scattered Clouds,240,2012-12-07 22:53:00
4:53 PM,35.1,21.0,57,29.90,10.0,WSW,8.1,-,N/A,,Mostly Cloudy,250,2012-12-07 23:53:00
5:53 PM,33.8,21.2,60,29.78,10.0,SW,5.8,-,N/A,,Mostly Cloudy,230,2012-12-08 00:53:00
6:53 PM,30.9,23.0,72,29.85,10.0,SW,6.9,-,N/A,,Partly Cloudy,220,2012-12-08 01:53:00
7:53 PM,30.9,21.9,69,29.81,10.0,SW,6.9,-,N/A,,Partly Cloudy,230,2012-12-08 02:53:00
8:53 PM,30.9,19.9,64,29.78,10.0,WSW,10.4,-,N/A,,Mostly Cloudy,240,2012-12-08 03:53:00
9:53 PM,30.9,19.0,61,29.73,10.0,WSW,12.7,-,N/A,,Mostly Cloudy,240,2012-12-08 04:53:00
10:53 PM,32.0,19.0,59,29.70,10.0,WSW,13.8,-,N/A,,Mostly Cloudy,240,2012-12-08 05:53:00
11:53 PM,33.1,19.9,59,29.67,10.0,WSW,15.0,-,N/A,,Scattered Clouds,250,2012-12-08 06:53:00